Location: De Har
(53.3413°N, 6.6858°E)
Time: 16:46:11
(UTC+00:00)

Cosmos 220 Rocket - Pass Details

Date: 22 April 2026
Orbit: 538 x 573 km, 74.0° (Epoch: 9 May)

Event Time Altitude Azimuth Distance (km) Brightness Sun altitude
Exits shadow 02:32:26 24° 240° (WSW) 1,156 4.9 -14.0°
Maximum altitude 02:34:32 47° 302° (WNW) 731 4.3 -13.8°
Drops below altitude 10° 02:38:27 10° 17° (NNE) 1,823 7.4 -13.4°
Sets 02:40:43 0° 24° (NNE) 2,725 8.7 -13.1°
